Regional Weather Roundup
Issued by NWS Grand Forks, ND

Home | Current Version | Previous Version | Graphics & Text | Print | Product List | Glossary On
Versions: 1 2 3 4 5 6 7 8 9 10 11 12 13 14 15 16 17 18 19 20 21 22 23 24 25 26 27 28 29 30 31 32 33 34 35 36 37 38 39 40 41 42 43 44 45 46 47 48 49 50
464
ASUS43 KFGF 190710
RWRFGF
PRAIRIE TO PINES  WEATHER ROUNDUP
NATIONAL WEATHER SERVICE EASTERN NORTH DAKOTA/GRAND FORKS ND
100 AM CST THU JAN 19 2017

 **SATELLITE DATA USED TO AUGMENT SKY COVER AT AUTOMATED STATIONS**
 *****  WEATHER ACROSS EASTERN NORTH DAKOTA  *****

CITY           SKY/WX    TMP DP  RH WIND       PRES   REMARKS
GRAND FORKS    FAIR      26  19  74 S13       29.60F WCI  15
GRAND FRKS AFB FAIR      25  20  80 S12       29.59F WCI  14
DEVILS LAKE    FAIR      32  21  64 CALM      29.54F
FARGO          FAIR      29  24  82 S10       29.64F WCI  20
WAHPETON ARPT  FAIR      23  21  93 SE8       29.67F WCI  14
$$

 ***** WEATHER ACROSS CENTRAL AND WESTERN NORTH DAKOTA  *****

CITY           SKY/WX    TMP DP  RH WIND       PRES   REMARKS
BISMARCK       FAIR      22  15  75 CALM      29.58F
MINOT          FAIR      33  25  72 SW10      29.50R WCI  25
JAMESTOWN      FAIR      23  18  81 S9        29.58F WCI  13
MINOT AFB      FAIR      35  26  69 W6        29.49S
GARRISON         N/A     22  18  85 SW3       29.53F
WILLISTON      FAIR      25  21  85 S5        29.54F WCI  19
DICKINSON      FAIR      33  20  58 W8        29.51F
HETTINGER      FAIR      20  14  77 VRB3      29.57F
$$

 *****  OTHER AIRPORT OBSERVATIONS IN OUR AREA  *****

CITY           SKY/WX    TMP DP  RH WIND       PRES   REMARKS
WALHALLA       NOT AVBL
GRAFTON AIRPOR FAIR      23  21  93 S12       29.59F WCI  12
VALLEY CITY AR FAIR      27  25  93 S7        29.61F WCI  19
CANDO          NOT AVBL
CAVALIER APRT    N/A     27  23  86 S14       29.53S WCI  15
GWINNER        FAIR      23  21  93 S8        29.63F WCI  14
SHEYENNE NWR     N/A     19  17  91 S2        29.95S
ROLLA            N/A    N/A N/A N/A MISG        N/A
 ***** THE ABOVE OBSERVATIONS ARE NON NWS ARE NOT QUALITY
       CONTROLLED AND MAY MIS-REPORT RAIN FOR SNOW...
$$

  *****  WEATHER ACROSS NORTHERN MINNESOTA  *****

CITY           SKY/WX    TMP DP  RH WIND       PRES   REMARKS
FLAG ISLAND    FAIR      19  18  93 SE9       29.60F WCI   9
WARROAD        FAIR      30  25  80 S5        29.61F
ROSEAU         FAIR      30  25  80 S9        29.60S WCI  22
HALLOCK        FAIR      27  21  80 S20       29.56F WCI  13
THF RVR FALLS  FAIR      29  24  82 S13       29.63F WCI  19
BAUDETTE       FAIR      30  22  72 S6        29.63R WCI  24
WASKISH        FAIR      32  25  74 CALM      29.65S
CROOKSTON      FAIR      28  25  86 S13       29.64F WCI  18
GREENBUSH NDAW   N/A     30  25  80 S14         N/A  WCI  20
$$
  *****  WEATHER ACROSS CENTRAL AND WEST MINNESOTA  *****

CITY           SKY/WX    TMP DP  RH WIND       PRES   REMARKS
FOSSTON        FAIR      27  19  74 S10       29.64F WCI  17
BEMIDJI        FAIR      25  21  85 S6        29.66F WCI  18
PARK RAPIDS    FAIR      22  19  89 SE9       29.67F FOG     WCI  12
ELBOW LAKE     FAIR      29  29 100 E13       29.69F FOG     WCI  18
WADENA           N/A     21  21 100 SE3       29.69F FOG
DETROIT LAKES  FAIR      28  27  93 SE7       29.66F WCI  21
MOORHEAD       FAIR      27  25  93 S12       29.66F WCI  16
FERGUS FALLS   FAIR      30  27  86 SE10      29.72F WCI  21
MORRIS MN      HVY SNOW  28  28 100 SE12      29.69F VSB<1/4 WCI  18
STAPLES        MOCLDY    27  27 100 SE7       29.71F FOG     WCI  19
$$
  *****  WEATHER ELSEWHERE ACROSS MINNESOTA  *****

CITY           SKY/WX    TMP DP  RH WIND       PRES   REMARKS
DULUTH         FAIR      32  29  88 SW8       29.76S FOG     WCI  25
INTRNTL FALLS  FAIR      27  21  78 SE5       29.67S WCI  22
ELY            FAIR      25  23  93 CALM      29.72F
CLOQUET        CLOUDY    30  28  93 S5        29.76S FOG
WHEATON        FAIR      30  30 100 SE13      29.69F WCI  20
BRAINERD       FOG       31  31 100 S7        29.73F VSB 1/2 WCI  24
HIBBING        FAIR      22  21  96 S3        29.73F
ALEXANDRIA     FOG       28  28 100 SE7       29.71F VSB 1/4 WCI  21
SAINT CLOUD    FOG       30  30 100 SE5       29.77F VSB 1/4
MINNEAPOLIS    FAIR      31  29  92 SE6       29.82F
$$

  *****  WEATHER ACROSS SOUTH DAKOTA  *****

CITY           SKY/WX    TMP DP  RH WIND       PRES   REMARKS
SIOUX FALLS    FAIR      37  36  96 S12       29.76F
BROOKINGS      FAIR      33  32  96 S13       29.71F WCI  24
WATERTOWN      FOG       26  26 100 S10       29.66F VSB 1   WCI  16
HURON          FAIR      31  30  96 S9        29.66F WCI  23
SISSETON         N/A     26  25  96 SE7       29.65F WCI  18
ABERDEEN       FOG       14  11  87 CALM      29.63F VSB 1/4
MITCHELL       FAIR      32  31  96 SE8       29.70F WCI  25
PIERRE         FAIR      17  16  95 CALM      29.59S
MOBRIDGE       FAIR      16  12  84 CALM      29.57F
RAPID CITY     FAIR      33  23  66 NW13      29.56F WCI  24
$$

  *****  SOME WEATHER IN NEARBY STATES *****

CITY           SKY/WX    TMP DP  RH WIND       PRES   REMARKS
GLASGOW MT     FAIR      27  22  81 SE13      29.50F WCI  16
GREAT FALLS MT CLOUDY    42  25  50 S14       29.48F
CHEYENNE WY    FAIR      36  16  44 W13       29.67F
SCOTTSBLUFF NE FAIR      26  19  74 NW7       29.64F WCI  18
OMAHA NE       FAIR      36  31  82 SE12      29.86F
DES MOINES IA  FOG       37  36  96 S9        29.93F VSB 1/2
DAVENPORT IA   FAIR      32  31  96 S7        30.00F FOG
CHICAGO IL     CLOUDY    34  33  96 SW10      30.03S FOG
EAU CLAIRE WI  FOG       26  25  96 CALM      29.87F VSB 3/4
LA CROSSE WI   CLOUDY    37  34  89 S12       29.92S FOG
$$

  *****  SOME NATIONAL WEATHER *****

CITY           SKY/WX    TMP DP  RH WIND       PRES   REMARKS
LA GUARDIA NY  CLOUDY    42  36  79 CALM      30.03R
RALEIGH NC     FAIR      42  35  76 CALM      30.06F
ATLANTA GA     MOCLDY    56  51  84 CALM      30.07F
NEW ORLEANS LA CLOUDY    71  70  96 S9        30.00F
OKLAHOMA CITY  CLOUDY    47  45  93 S14       29.89F
ALBUQUERQUE NM FAIR      38  29  70 N5        29.96F
SALT LAKE CITY CLOUDY    26  22  84 CALM      29.85F
LOS ANGELES CA MOCLDY    54  50  86 SE10      30.04F
BOISE ID       CLOUDY    37  33  85 SE18      29.66F
SEATTLE WA     LGT RAIN  47  43  86 S20G32    29.36R
$$

*** WEATHER ACROSS MANITOBA...SASKATCHEWAN AND ONTARIO ***
                ***ONTARIO***

CITY           SKY/WX    TMP DP  RH WIND       PRES   REMARKS
GERALDTON      CLEAR     10   9  92 CALM      29.81R
THUNDER BAY    CLEAR     18  16  93 SW3       29.82R
SIOUX LOOKOUT  MOCLDY    28  23  80 S7        29.65F WCI  21
TORONTO        CLOUDY    37  34  87 W8        29.98S
BIG TROUT LK   CLOUDY    30  28  93 S13       29.66F WCI  20
PICKLE LAKE    NOT AVBL
DRYDEN         CLEAR     28  25  86 S12       29.64R WCI  18
KENORA         PTCLDY    30  23  74 S10       29.59F WCI  21
$$
                *** MANITOBA***

CITY           SKY/WX    TMP DP  RH WIND       PRES   REMARKS
BRANDON        CLEAR     27  21  80 W12       29.48R WCI  16
DAUPHIN        CLOUDY    41  30  65 W12       29.38S
ISLAND LAKE    CLOUDY    32  27  80 SE10      29.48F WCI  24
PILOT MOUND      N/A     25  21  86 S15         N/A  WCI  12
THE PAS        PTCLDY    27  25  93 SE8       29.26S WCI  18
THOMPSON       LGT RAIN  32  30  93 SE5       29.37F
WINNIPEG       PTCLDY    27  23  86 S18G25    29.51F WCI  13
LYNN LAKE      CLOUDY    32  32 100 S10       29.28S WCI  24
CHURCHILL      LGT SNOW  12  10  92 SE13      29.62F FOG     WCI  -3
GILLAM         FLURRIES  27  25  93 SE7       29.51F WCI  19
$$
                ***SASKATCHEWAN***

CITY           SKY/WX    TMP DP  RH WIND       PRES   REMARKS
ESTEVAN        CLEAR     27  23  86 SW14      29.49S WCI  15
KINDERSLEY     PTCLDY    36  30  80 SW12      29.30R
LLOYDMINSTER   CLEAR     34  28  80 SW13      29.21S WCI  25
PRINCE ALBERT  CLOUDY    21  19  93 W3        29.26R
REGINA         CLEAR     34  28  80 S13       29.41F WCI  25
YORKTON        CLEAR     32  28  86 S9        29.38R WCI  24
N. BATTLEFORD  CLEAR     32  32 100 VRB2      29.28R
LA RONGE       MOCLDY    23  21  93 CALM      29.20S
SASKATOON      MOCLDY    32  30  93 S8        29.31F WCI  25
SWIFT CURRENT  PTCLDY    41  32  70 SW20G25   29.35R
$$
NOTE: THESE ARE AUTOMATED STATIONS WITH LIMITED QUALITY CONTROL
      "FAIR" INDICATES FEW OR NO CLOUDS BELOW 12,000 FEET WITH NO
      SIGNIFICANT WEATHER AND/OR OBSTRUCTIONS TO VISIBILITY.
      SKY/WX - SKY CONDITION AND SIGNIFICANT WEATHER.
      TMP - AIR TEMPERATURE.    DP   - DEWPOINT TEMPERATURE.
      RH  - RELATIVE HUMIDITY.  PRES - PRESSURE.
      HX  - HEAT INDEX.         WCI  - WIND CHILL INDEX.
$




USA.gov is the U.S. government's official web portal to all federal, state and local government web resources and services.